TimeMST,TemperatureF,Dew PointF,Humidity,Sea Level PressureIn,VisibilityMPH,Wind Direction,Wind SpeedMPH,Gust SpeedMPH,PrecipitationIn,Events,Conditions,WindDirDegrees,DateUTC
12:53 AM,1.9,-0.9,88,30.33,10.0,Calm,Calm,-,N/A,,Clear,0,2012-12-29 07:53:00
1:12 AM,-2.2,-5.8,85,30.06,1.5,Calm,Calm,-,N/A,,Clear,0,2012-12-29 08:12:00
1:21 AM,-2.2,-7.6,78,30.06,0.5,Calm,Calm,-,N/A,Fog,Light Freezing Fog,0,2012-12-29 08:21:00
1:32 AM,-4.0,-7.6,85,30.06,0.2,Calm,Calm,-,N/A,Fog,Light Freezing Fog,0,2012-12-29 08:32:00
1:39 AM,-4.0,-7.6,85,30.07,0.5,Calm,Calm,-,N/A,Fog,Light Freezing Fog,0,2012-12-29 08:39:00
1:48 AM,-2.2,-7.6,78,30.06,1.2,Calm,Calm,-,N/A,,Haze,0,2012-12-29 08:48:00
1:51 AM,-2.2,-7.6,78,30.06,3.0,Calm,Calm,-,N/A,,Partly Cloudy,0,2012-12-29 08:51:00
1:53 AM,-2.9,-7.1,82,30.35,4.0,Calm,Calm,-,N/A,,Partly Cloudy,0,2012-12-29 08:53:00
2:02 AM,3.2,-2.2,78,30.07,2.0,Calm,Calm,-,N/A,,Haze,0,2012-12-29 09:02:00
2:09 AM,1.4,-4.0,78,30.07,1.0,ESE,3.5,-,N/A,,Haze,110,2012-12-29 09:09:00
2:29 AM,-2.2,-5.8,85,30.07,0.5,Calm,Calm,-,N/A,Fog,Light Freezing Fog,0,2012-12-29 09:29:00
2:37 AM,-2.2,-7.6,78,30.07,0.2,Calm,Calm,-,N/A,Fog,Light Freezing Fog,0,2012-12-29 09:37:00
2:53 AM,-2.9,-6.0,87,30.37,0.2,Calm,Calm,-,N/A,Fog,Light Freezing Fog,0,2012-12-29 09:53:00
3:11 AM,-5.8,-9.4,84,30.08,0.5,West,4.6,-,N/A,Fog,Light Freezing Fog,260,2012-12-29 10:11:00
3:18 AM,-2.2,-7.6,78,30.08,1.2,West,4.6,-,N/A,,Haze,270,2012-12-29 10:18:00
3:29 AM,-2.2,-7.6,78,30.08,0.2,WNW,5.8,-,N/A,Fog,Light Freezing Fog,290,2012-12-29 10:29:00
3:40 AM,-5.8,-9.4,84,30.08,1.0,WNW,4.6,-,N/A,,Mist,290,2012-12-29 10:40:00
3:42 AM,-5.8,-9.4,84,30.08,2.0,WNW,3.5,-,N/A,,Partly Cloudy,290,2012-12-29 10:42:00
3:49 AM,-5.8,-9.4,84,30.08,10.0,Calm,Calm,-,N/A,,Partly Cloudy,0,2012-12-29 10:49:00
3:53 AM,-2.9,-8.0,79,30.36,10.0,Calm,Calm,-,N/A,,Partly Cloudy,0,2012-12-29 10:53:00
4:22 AM,-2.2,-5.8,85,30.08,1.8,Calm,Calm,-,N/A,,Partly Cloudy,0,2012-12-29 11:22:00
4:26 AM,-2.2,-5.8,85,30.08,0.8,Calm,Calm,-,N/A,,Mist,0,2012-12-29 11:26:00
4:53 AM,-2.0,-7.1,79,30.37,0.2,Calm,Calm,-,N/A,,Haze,0,2012-12-29 11:53:00
5:05 AM,-5.8,-7.6,92,30.07,0.2,Calm,Calm,-,N/A,Fog,Light Freezing Fog,0,2012-12-29 12:05:00
5:19 AM,-7.6,-11.2,84,30.08,0.5,Calm,Calm,-,N/A,,Haze,0,2012-12-29 12:19:00
5:53 AM,-5.1,-9.9,80,30.42,1.0,West,4.6,-,N/A,,Haze,260,2012-12-29 12:53:00
6:01 AM,-5.8,-9.4,84,30.08,0.5,West,4.6,-,N/A,Fog,Light Freezing Fog,270,2012-12-29 13:01:00
6:48 AM,-5.8,-9.4,84,30.08,0.2,Calm,Calm,-,N/A,Fog,Light Freezing Fog,0,2012-12-29 13:48:00
6:53 AM,-5.1,-9.9,80,30.40,0.5,Calm,Calm,-,N/A,,Haze,0,2012-12-29 13:53:00
7:02 AM,-5.8,-9.4,84,30.09,0.2,Calm,Calm,-,N/A,Fog,Light Freezing Fog,0,2012-12-29 14:02:00
7:24 AM,-5.8,-11.2,77,30.09,1.2,NW,9.2,-,N/A,,Haze,320,2012-12-29 14:24:00
7:27 AM,-5.8,-11.2,77,30.09,3.0,NW,9.2,-,N/A,,Haze,320,2012-12-29 14:27:00
7:34 AM,-5.8,-11.2,77,30.08,1.8,NNW,8.1,-,N/A,,Haze,330,2012-12-29 14:34:00
7:43 AM,-5.8,-9.4,84,30.08,0.5,NW,8.1,-,N/A,,Haze,320,2012-12-29 14:43:00
7:53 AM,-5.1,-9.9,80,30.40,0.5,North,5.8,-,N/A,,Haze,360,2012-12-29 14:53:00
8:18 AM,-5.8,-9.4,84,30.09,0.2,NNW,3.5,-,N/A,,Haze,330,2012-12-29 15:18:00
8:24 AM,-5.8,-9.4,84,30.09,1.2,Calm,Calm,-,N/A,,Haze,0,2012-12-29 15:24:00
8:48 AM,-5.8,-7.6,92,30.08,0.5,Calm,Calm,-,N/A,Fog,Light Freezing Fog,0,2012-12-29 15:48:00
8:53 AM,-4.0,-8.0,83,30.41,0.5,Calm,Calm,-,N/A,Fog,Light Freezing Fog,0,2012-12-29 15:53:00
9:02 AM,-2.2,-5.8,85,30.09,1.2,Calm,Calm,-,N/A,,Scattered Clouds,0,2012-12-29 16:02:00
9:07 AM,-0.4,-5.8,78,30.09,3.0,NNW,3.5,-,N/A,,Haze,340,2012-12-29 16:07:00
9:53 AM,1.9,-4.0,76,30.40,10.0,North,4.6,-,N/A,,Clear,360,2012-12-29 16:53:00
10:53 AM,1.9,-2.9,80,30.39,9.0,Calm,Calm,-,N/A,,Clear,0,2012-12-29 17:53:00
11:35 AM,1.4,-0.4,92,30.06,2.5,SW,3.5,-,N/A,,Partly Cloudy,230,2012-12-29 18:35:00
11:39 AM,1.4,-2.2,85,30.06,1.0,SW,4.6,-,N/A,,Mist,230,2012-12-29 18:39:00
11:46 AM,1.4,-2.2,85,30.05,1.2,Calm,Calm,-,N/A,,Scattered Clouds,0,2012-12-29 18:46:00
11:49 AM,1.4,-0.4,92,30.05,3.0,WSW,3.5,-,N/A,,Scattered Clouds,250,2012-12-29 18:49:00
11:53 AM,3.0,-0.9,84,30.35,6.0,WSW,3.5,-,N/A,,Partly Cloudy,250,2012-12-29 18:53:00
12:53 PM,10.9,3.0,70,30.26,10.0,North,3.5,-,N/A,,Clear,350,2012-12-29 19:53:00
1:53 PM,3.9,-0.0,84,30.29,6.0,Calm,Calm,-,N/A,,Clear,0,2012-12-29 20:53:00
2:53 PM,8.1,1.0,73,30.26,10.0,WNW,5.8,-,N/A,,Clear,290,2012-12-29 21:53:00
3:53 PM,6.8,-0.4,72,29.96,10.0,WNW,3.5,-,N/A,,Clear,290,2012-12-29 22:53:00
4:53 PM,1.9,-2.9,80,30.26,10.0,West,4.6,-,N/A,,Clear,260,2012-12-29 23:53:00
5:53 PM,1.0,-4.0,79,30.27,10.0,West,3.5,-,N/A,,Clear,270,2012-12-30 00:53:00
6:53 PM,1.9,-4.0,76,30.27,10.0,SSW,4.6,-,N/A,,Clear,210,2012-12-30 01:53:00
7:53 PM,-2.0,-7.1,79,30.28,10.0,Calm,Calm,-,N/A,,Clear,0,2012-12-30 02:53:00
8:53 PM,-2.9,-8.0,79,30.27,10.0,NW,5.8,-,N/A,,Clear,310,2012-12-30 03:53:00
9:53 PM,-6.0,-11.0,79,30.27,10.0,NW,5.8,-,N/A,,Clear,320,2012-12-30 04:53:00
10:53 PM,-2.9,-7.1,82,30.27,10.0,Calm,Calm,-,N/A,,Partly Cloudy,0,2012-12-30 05:53:00
11:47 PM,-5.8,-9.4,84,29.94,2.0,SW,5.8,-,N/A,,Partly Cloudy,230,2012-12-30 06:47:00
11:53 PM,-6.0,-11.0,79,30.27,2.0,WSW,3.5,-,N/A,,Haze,250,2012-12-30 06:53:00